Weather History for Quillayute, WA

Change the Weather History Date:

Friday, October 15, 2010

  Actual Average Record
Temperature  
Mean Temperature 46 °F 50 °F  
Max Temperature 57 °F 58 °F 74 °F (1970)
Min Temperature 35 °F 42 °F 27 °F (1983)
Degree Days  
Heating Degree Days 19 15  
Month to date heating degree days 200  
Since 1 July heating degree days 825  
Cooling Degree Days 0 0  
Month to date cooling degree days 0  
Year to date cooling degree days 19  
Moisture  
Dew Point 39 °F    
Average Humidity 91    
Maximum Humidity 100    
Minimum Humidity 62    
Precipitation  
Precipitation 0.00 in 0.34 in 1.74 in (2003)
Month to date precipitation 4.12  
Year to date precipitation 64.66  
Sea Level Pressure  
Sea Level Pressure 30.31 in    
Wind  
Wind Speed 5 mph (NE)    
Max Wind Speed 12 mph    
Max Gust Speed 14 mph    
Visibility 5 miles    
Events Fog    
T = Trace of Precipitation, MM = Missing Value Source: NWS Daily Summary

Daily Weather History Graph

Daily Weather History Graph

Search for Another Location

Airport:

Trip Planner

Search our weather history database for the weather conditions in past years. The results will help you decide how hot, cold, wet, or windy it might be!

Date:

Astronomy

Oct. 15, 2010 Rise Set
Actual Time 7:37 AM PDT 6:29 PM PDT
Civil Twilight 7:06 AM PDT 7:00 PM PDT
Nautical Twilight 6:30 AM PDT 7:36 PM PDT
Astronomical Twilight 5:54 AM PDT 8:12 PM PDT
Moon 3:23 PM PDT (10/15) 12:04 AM PDT (10/15)
Length of Visible Light 11h 54m
Length of Day
10h 51m
First Quarter, 59% of the Moon is Illuminated
Oct 15
First Quarter
Oct 22
Full
Oct 30
Last Quarter
Nov 5
New
Nov 13
First Quarter

Hourly Weather History & Observations

Time (PDT) Temp. Windchill Dew Point Humidity Pressure Visibility Wind Dir Wind Speed Gust Speed Precip Events Conditions
12:35 AM 42.8 °F 41.1 °F 42.8 °F 100% 30.26 in 1.8 mi East 3.5 mph - N/A   Partly Cloudy
12:44 AM 42.8 °F - 41.0 °F 93% 30.26 in 3.0 mi Calm Calm - N/A   Partly Cloudy
12:53 AM 42.1 °F - 41.0 °F 96% 30.26 in 8.0 mi Calm Calm - N/A   Partly Cloudy
1:16 AM 41.0 °F - 39.2 °F 93% 30.26 in 1.8 mi Calm Calm - N/A   Clear
1:30 AM 41.0 °F - 39.2 °F 93% 30.27 in 1.2 mi Calm Calm - N/A   Partly Cloudy
1:32 AM 41.0 °F - 39.2 °F 93% 30.27 in 0.8 mi Calm Calm - N/A   Mist
1:53 AM 41.0 °F - 39.0 °F 93% 30.28 in 0.8 mi Calm Calm - N/A   Partly Cloudy
2:03 AM 42.8 °F - 41.0 °F 93% 30.28 in 1.5 mi Calm Calm - N/A   Partly Cloudy
2:05 AM 42.8 °F - 41.0 °F 93% 30.28 in 3.0 mi Calm Calm - N/A   Partly Cloudy
2:53 AM 42.1 °F 40.2 °F 41.0 °F 96% 30.29 in 10.0 mi East 3.5 mph - N/A   Clear
3:06 AM 41.0 °F - 39.2 °F 93% 30.29 in 1.5 mi Calm Calm - N/A   Partly Cloudy
3:09 AM 39.2 °F - 39.2 °F 100% 30.29 in 0.8 mi Calm Calm - N/A   Partly Cloudy
3:18 AM 39.2 °F - 39.2 °F 100% 30.29 in 0.2 mi Calm Calm - N/A Fog Fog
3:38 AM 39.2 °F - 39.2 °F 100% 30.29 in 1.0 mi Calm Calm - N/A   Mist
3:42 AM 39.2 °F 37.0 °F 39.2 °F 100% 30.29 in 4.0 mi East 3.5 mph - N/A   Scattered Clouds
3:53 AM 39.9 °F - 39.0 °F 97% 30.30 in 3.0 mi Calm Calm - N/A   Partly Cloudy
3:56 AM 39.2 °F - 39.2 °F 100% 30.30 in 1.8 mi Calm Calm - N/A   Clear
4:05 AM 41.0 °F - 39.2 °F 93% 30.30 in 3.0 mi Calm Calm - N/A   Clear
4:48 AM 39.2 °F - 37.4 °F 93% 30.30 in 1.8 mi Calm Calm - N/A   Partly Cloudy
4:53 AM 39.0 °F - 37.9 °F 96% 30.31 in 1.0 mi Calm Calm - N/A   Partly Cloudy
5:02 AM 37.4 °F - 37.4 °F 100% 30.30 in 2.0 mi Calm Calm - N/A   Partly Cloudy
5:20 AM 39.2 °F 37.0 °F 37.4 °F 93% 30.30 in 4.0 mi East 3.5 mph - N/A   Clear
5:53 AM 37.0 °F - 37.0 °F 100% 30.32 in 3.0 mi Calm Calm - N/A   Clear
5:58 AM 37.4 °F - 35.6 °F 93% 30.32 in 1.8 mi Calm Calm - N/A   Clear
6:07 AM 35.6 °F - 35.6 °F 100% 30.32 in 1.0 mi Calm Calm - N/A   Clear
6:12 AM 37.4 °F - 35.6 °F 93% 30.32 in 2.0 mi Calm Calm - N/A   Clear
6:20 AM 35.6 °F - 35.6 °F 100% 30.32 in 4.0 mi Calm Calm - N/A   Clear
6:37 AM 35.6 °F - 35.6 °F 100% 30.33 in 1.8 mi Calm Calm - N/A   Clear
6:53 AM 36.0 °F - 35.1 °F 97% 30.34 in 1.5 mi Calm Calm - N/A   Partly Cloudy
7:05 AM 35.6 °F - 35.6 °F 100% 30.33 in 1.0 mi Calm Calm - N/A   Mist
7:15 AM 35.6 °F - 33.8 °F 93% 30.33 in 0.5 mi Calm Calm - N/A Fog Fog
7:39 AM 37.4 °F - 35.6 °F 93% 30.34 in 0.2 mi Calm Calm - N/A Fog Fog
7:53 AM 37.0 °F - 36.0 °F 96% 30.35 in 0.2 mi Calm Calm - N/A Fog Fog
8:02 AM 37.4 °F 34.9 °F 35.6 °F 93% 30.34 in 1.5 mi ENE 3.5 mph - N/A   Partly Cloudy
8:07 AM 35.6 °F - 35.6 °F 100% 30.34 in 3.0 mi Calm Calm - N/A   Clear
8:27 AM 37.4 °F - 37.4 °F 100% 30.35 in 1.8 mi Calm Calm - N/A   Clear
8:36 AM 37.4 °F 34.9 °F 37.4 °F 100% 30.35 in 1.2 mi East 3.5 mph - N/A   Clear
8:41 AM 39.2 °F - 37.4 °F 93% 30.35 in 2.0 mi Calm Calm - N/A   Clear
8:50 AM 41.0 °F 38.0 °F 39.2 °F 93% 30.36 in 10.0 mi East 4.6 mph - N/A   Clear
8:53 AM 41.0 °F 38.0 °F 39.9 °F 96% 30.36 in 10.0 mi ENE 4.6 mph - N/A   Clear
9:53 AM 45.0 °F 41.8 °F 43.0 °F 93% 30.37 in 10.0 mi East 5.8 mph - N/A   Clear
10:53 AM 50.0 °F - 45.0 °F 83% 30.38 in 10.0 mi East 5.8 mph - N/A   Clear
11:53 AM 53.1 °F - 45.0 °F 74% 30.37 in 10.0 mi Variable 4.6 mph - N/A   Clear
12:53 PM 55.0 °F - 44.1 °F 67% 30.37 in 10.0 mi Variable 3.5 mph - N/A   Scattered Clouds
1:53 PM 55.0 °F - 42.1 °F 62% 30.36 in 10.0 mi NW 4.6 mph - N/A   Scattered Clouds
2:53 PM 55.0 °F - 43.0 °F 64% 30.34 in 10.0 mi Variable 4.6 mph - N/A   Partly Cloudy
3:53 PM 54.0 °F - 43.0 °F 66% 30.34 in 10.0 mi NW 5.8 mph - N/A   Clear
4:53 PM 53.1 °F - 42.1 °F 66% 30.33 in 10.0 mi NNW 9.2 mph - N/A   Clear
5:53 PM 51.1 °F - 42.1 °F 71% 30.32 in 10.0 mi NNW 5.8 mph - N/A   Clear
6:53 PM 48.0 °F - 41.0 °F 77% 30.32 in 10.0 mi North 6.9 mph - N/A   Clear
7:53 PM 46.0 °F 42.5 °F 41.0 °F 83% 30.30 in 10.0 mi North 6.9 mph - N/A   Clear
8:53 PM 45.0 °F 40.1 °F 41.0 °F 86% 30.28 in 10.0 mi North 9.2 mph - N/A   Clear
9:53 PM 44.1 °F 39.0 °F 41.0 °F 89% 30.27 in 10.0 mi North 9.2 mph - N/A   Clear
10:53 PM 44.1 °F 39.0 °F 41.0 °F 89% 30.25 in 10.0 mi North 9.2 mph - N/A   Clear
11:53 PM 43.0 °F 38.8 °F 39.9 °F 89% 30.24 in 10.0 mi North 6.9 mph - N/A   Clear